Total_Precipitation_Accumulation
1.55 1.67 1.64 1.59 1.63 1.63 1.93 2.18 2.29 2.14 2.04 1.99 1.84 1.78 1.86 1.94 1.95 1.67 1.50 1.54 1.45 1.32 1.24 1.18 1.14 1.18 1.25 1.31 1.38 1.47 1.58 1.77 1.95 2.08 2.27 2.59 2.95 3.31
1.67 1.69 1.67 1.64 1.74 1.69 1.81 2.02 2.20 2.37 2.23 1.86 1.73 1.67 1.63 1.48 1.53 1.38 1.34 1.50 1.38 1.25 1.21 1.19 1.18 1.18 1.15 1.15 1.16 1.17 1.20 1.23 1.29 1.37 1.47 1.64 1.86 2.21
1.89 1.87 1.93 2.00 1.95 1.85 1.92 1.98 2.11 2.36 2.33 1.92 1.83 1.81 1.69 1.50 1.38 1.30 1.26 1.35 1.40 1.50 1.36 1.26 1.16 1.09 1.05 1.04 1.05 1.08 1.10 1.14 1.17 1.20 1.24 1.29 1.31 1.40
2.02 2.23 2.20 2.18 2.09 1.95 2.04 1.99 2.03 2.30 2.21 1.97 1.99 1.99 1.91 1.68 1.56 1.44 1.29 1.29 1.37 1.54 1.33 1.21 1.15 1.10 1.07 1.06 1.05 1.01 0.99 1.00 1.04 1.04 1.04 1.05 1.07 1.11
2.08 2.18 2.21 2.34 2.21 2.11 2.05 2.01 2.05 2.22 2.30 2.12 2.06 2.20 2.13 1.88 1.75 1.54 1.36 1.39 1.25 1.38 1.34 1.25 1.22 1.15 1.09 1.02 0.99 0.96 0.93 0.92 0.93 0.96 0.99 1.01 1.02 0.99
2.09 2.01 2.09 2.32 2.36 2.31 2.15 2.10 2.18 2.31 2.35 2.30 2.26 2.35 2.34 2.26 2.09 1.82 1.67 1.56 1.42 1.33 1.38 1.27 1.24 1.19 1.12 1.04 0.98 0.95 0.94 0.92 0.88 0.86 0.84 0.82 0.80 0.80
1.91 1.81 1.80 2.00 2.22 2.30 2.12 2.08 2.19 2.21 2.21 2.26 2.27 2.32 2.34 2.45 2.30 2.00 1.79 1.67 1.47 1.30 1.31 1.22 1.17 1.08 1.09 1.09 1.00 0.92 0.85 0.81 0.78 0.75 0.74 0.74 0.72 0.70
1.87 1.81 1.69 1.66 1.69 1.84 1.97 2.09 2.21 2.18 2.17 2.31 2.47 2.52 2.50 2.49 2.46 2.25 1.98 1.76 1.61 1.42 1.46 1.43 1.35 1.27 1.09 0.98 1.02 0.93 0.83 0.79 0.76 0.70 0.66 0.65 0.65 0.65
1.71 1.71 1.47 1.33 1.44 1.38 1.56 1.71 1.84 1.92 1.94 2.09 2.25 2.36 2.48 2.61 2.64 2.42 2.22 2.02 1.76 1.56 1.54 1.43 1.33 1.33 1.21 1.13 1.18 1.01 0.92 0.87 0.82 0.79 0.75 0.69 0.65 0.64
1.50 1.50 1.45 1.38 1.36 1.41 1.43 1.42 1.41 1.48 1.60 1.61 1.74 1.98 2.23 2.43 2.58 2.50 2.39 2.10 1.81 1.59 1.53 1.43 1.27 1.25 1.20 1.21 1.30 1.19 1.06 0.96 0.84 0.77 0.73 0.70 0.64 0.61
1.49 1.51 1.54 1.46 1.55 1.42 1.37 1.42 1.45 1.48 1.52 1.56 1.58 1.74 2.00 2.18 2.26 2.32 2.29 2.15 1.91 1.68 1.60 1.59 1.39 1.29 1.23 1.12 1.12 1.18 1.06 0.98 0.90 0.80 0.72 0.69 0.69 0.66
1.53 1.54 1.53 1.42 1.42 1.26 1.20 1.33 1.35 1.39 1.44 1.46 1.48 1.51 1.59 1.91 2.20 2.02 2.01 2.05 1.87 1.60 1.37 1.42 1.39 1.37 1.26 0.99 0.88 0.89 0.86 0.90 0.93 0.89 0.83 0.75 0.75 0.68
1.60 1.54 1.52 1.44 1.17 1.10 1.07 1.09 1.13 1.16 1.27 1.27 1.23 1.25 1.34 1.50 1.73 1.79 1.75 1.71 1.66 1.44 1.25 1.23 1.18 1.20 1.13 0.93 0.77 0.73 0.71 0.70 0.72 0.79 0.84 0.81 0.75 0.69
1.50 1.52 1.52 1.38 1.10 0.97 0.87 0.85 0.85 0.81 0.90 1.03 1.07 1.09 1.13 1.24 1.38 1.52 1.60 1.61 1.50 1.37 1.28 1.24 1.11 1.05 0.99 0.88 0.75 0.66 0.68 0.69 0.68 0.67 0.70 0.84 0.82 0.78
1.28 1.44 1.36 1.17 0.99 0.84 0.78 0.74 0.69 0.66 0.78 0.92 1.00 1.01 1.01 1.08 1.31 1.59 1.76 1.81 1.71 1.46 1.33 1.26 1.18 1.10 1.09 0.96 0.81 0.70 0.66 0.65 0.65 0.69 0.70 0.72 0.76 0.76
1.07 1.17 1.18 1.16 1.09 1.00 0.90 0.79 0.70 0.74 0.83 0.92 1.03 1.13 1.23 1.31 1.38 1.51 1.69 1.75 1.74 1.56 1.34 1.28 1.23 1.24 1.15 0.98 0.89 0.80 0.70 0.63 0.61 0.67 0.75 0.75 0.80 0.85
1.07 1.13 1.16 1.25 1.29 1.28 1.24 1.14 1.05 1.01 0.96 0.94 1.07 1.19 1.23 1.27 1.30 1.40 1.55 1.58 1.48 1.37 1.23 1.15 1.20 1.20 1.15 1.06 0.95 0.80 0.72 0.65 0.62 0.69 0.82 0.84 0.80 0.82
0.98 1.12 1.28 1.39 1.47 1.48 1.45 1.33 1.19 1.07 0.99 1.01 1.08 1.17 1.22 1.23 1.27 1.39 1.49 1.50 1.37 1.25 1.22 1.10 1.11 1.25 1.24 1.10 0.93 0.84 0.78 0.72 0.69 0.77 0.83 0.85 0.81 0.75
0.83 0.99 1.16 1.24 1.31 1.31 1.31 1.24 1.19 1.14 1.12 1.15 1.22 1.27 1.32 1.31 1.32 1.35 1.43 1.46 1.37 1.25 1.21 1.20 1.15 1.17 1.15 0.94 0.72 0.68 0.77 0.79 0.85 0.90 0.92 0.90 0.83 0.73
0.69 0.80 0.93 1.03 1.14 1.26 1.32 1.29 1.27 1.25 1.19 1.16 1.23 1.26 1.29 1.33 1.32 1.28 1.34 1.41 1.39 1.32 1.25 1.20 1.15 1.07 1.01 0.96 0.83 0.73 0.74 0.88 0.98 0.99 0.95 0.97 0.92 0.86
0.70 0.72 0.78 0.91 1.07 1.23 1.33 1.37 1.37 1.31 1.20 1.18 1.19 1.23 1.24 1.30 1.28 1.23 1.29 1.40 1.41 1.35 1.18 1.01 0.94 1.07 1.16 1.27 1.14 0.83 0.74 0.79 0.90 0.99 1.04 1.09 1.05 1.02
0.77 0.78 0.80 0.88 1.03 1.21 1.30 1.32 1.36 1.31 1.26 1.22 1.19 1.23 1.25 1.27 1.25 1.21 1.23 1.31 1.29 1.25 1.17 1.10 1.21 1.39 1.45 1.38 1.13 0.94 0.89 0.86 0.89 0.94 0.95 0.97 1.00 0.95
0.87 0.82 0.80 0.86 0.98 1.12 1.20 1.24 1.28 1.26 1.21 1.20 1.19 1.21 1.26 1.27 1.34 1.35 1.30 1.33 1.35 1.39 1.48 1.44 1.42 1.44 1.43 1.37 1.26 1.12 1.01 0.95 0.97 1.00 0.90 0.83 0.79 0.76